Weather in Zelene

Ukraine / Dnipropetrovsk Region     48°35′28″N   34°08′15″E
temp.,
°C
wind,
m/s
gust,
m/s
humid.,
%
clouds,
%
prec.,
mm/h
press.,
hPa
HPBL,
m
27 november, sat
sat2723:00+3sse61795100 0.0 1012545
02:00+5sse81892100 0.0 1009554
05:00+6sse81795100 0.4 1006697
08:00+8sse91795100 5.7 1004901
11:00+9s81585100 0.1 1003674
14:00+10ssw61384100 0.1 1003620
17:00+10ssw6138927 0.0 1004327
20:00+9ssw61392100 0.0 1005318
28 november, sun
sun2823:00+8s5119751 0.0 1005254
02:00+8sw4896100 0.0 1006317
05:00+6ssw23944 0.0 100772
08:00+6s36930 0.0 1008106
11:00+11ssw46692 0.0 1008301
14:00+13sse47635 0.0 1007486
17:00+9se41090100 0.0 1007176
20:00+10sse6139317 0.0 1007330
29 november, mon
mon2923:00+10sse41098100 0.3 1006422
02:00+10sse51198100 0.3 1003414
05:00+10sse61296100 0.1 1001516
08:00+11s81489100 0.1 1000794
11:00+12s101893100 3.6 9971065
14:00+14s9157489 3.9 993889
17:00+14ssw101682100 0.3 991964
20:00+13sw11178272 1.3 9911088
30 november, tue
tue3023:00+9wsw915805 0.2 994734
02:00+6w71465100 0.2 996616
05:00+4wsw61169100 0.0 999565
08:00+3wsw51170100 0.0 1000565
11:00+5wsw6955100 0.0 1001619
14:00+6wsw6104837 0.0 1000813
17:00+4w61155100 0.0 1001516
20:00+2w61365100 0.0 1001690
1 december, wed
wed123:00+1wnw8147289 0.0 1000822
02:000w5107514 0.0 1004508
05:00−1w5107958 0.0 1005385
08:00−1wsw611754 0.0 1006379
11:00+2sw81355100 0.0 1005991
14:00+3wsw81254100 0.0 10041045
17:00+1wsw61475100 0.0 1005665
20:00+1wsw613685 0.0 1006355